Regional Weather Roundup
Issued by NWS

Home | Current Version | Previous Version | Graphics & Text | Print | Product List | Glossary On
Versions: 1 2 3 4 5 6 7 8 9 10 11 12 13 14 15 16 17 18 19 20 21 22 23 24 25 26 27 28 29 30 31 32 33 34 35 36 37 38 39 40 41 42 43 44 45 46 47 48 49
000
ASUS45 KBOU 030007
RWRCO

WEATHER ROUNDUP FOR COLORADO
NATIONAL WEATHER SERVICE DENVER/BOULDER CO
600 PM MDT MON MAY 02 2016

NOTE: "FAIR" INDICATES FEW OR NO CLOUDS BELOW 12000 FEET WITH NO
SIGNIFICANT WEATHER AND/OR OBSTRUCTIONS TO VISIBILITY.

COZ001>005-013-030-031-030100-
...NORTHWEST COLORADO...

CITY           SKY/WX    TMP DP  RH WIND       PRES   REMARKS
CRAIG          FAIR      59  23  25 W13       30.18R
HAYDEN         FAIR      55  21  26 W13       30.18S
MEEKER         PTSUNNY   60  25  26 W10       30.17S
MOUNT WERNER   NOT AVBL
STEAMBOAT SPGS FAIR      56  26  31 W13       30.17S
WALDEN         FAIR      50  19  29 N15G23    30.21S
$$

COZ006>008-011-030100-
...WEST CENTRAL VALLEYS...

CITY           SKY/WX    TMP DP  RH WIND       PRES   REMARKS
GRAND JUNCTION FAIR      64  33  31 NW14G20   30.12S
MONTROSE       FAIR      62  26  25 N9        30.15S
EAGLE          MOSUNNY   61  25  25 W6        30.15R
RIFLE          PTSUNNY   64  25  22 VRB3      30.11F
DELTA          NOT AVBL
NUCLA          NOT AVBL
$$

COZ017>023-064>068-030100-
...SOUTHWEST COLORADO...

CITY           SKY/WX    TMP DP  RH WIND       PRES   REMARKS
DURANGO        FAIR      56  33  42 W12       30.18R
CORTEZ         FAIR      56  34  43 S7        30.17S
PAGOSA SPRINGS FAIR      53  31  43 W12       30.19S
TELLURIDE      CLOUDY    44  30  59 W6        30.26R
WOLF CREEK PAS FAIR      28  28 100 SW7       30.34S WCI  21
$$

COZ009-010-012-014-032>034-037-058>063-030100-
...CENTRAL COLORADO...

CITY           SKY/WX    TMP DP  RH WIND       PRES   REMARKS
ASPEN          FAIR      56  23  27 N8        30.17S
BUENA VISTA    CLOUDY    52  25  35 E10       30.16R
COPPER MTN     NOT AVBL
BERTHOUD PASS  FAIR      23  12  63 NW26G35   30.29F HAZE    WCI   6
COTTONWOOD PAS PTSUNNY   52  18  25 CALM      30.23S
GUNNISON       FAIR      54  25  32 SW12      30.19S
KREMMLING      FAIR      55  16  21 NW10G20   30.19S
LEADVILLE      FAIR      45  15  30 NW9       30.22S
MONARCH PASS   FAIR      28  27  93 MISG      30.42F
SALIDA         FAIR      56  26  31 W14G21    30.22S
SUNLIGHT       FAIR      41  28  60 NW3       30.35R
WILKERSON PASS PTSUNNY   36  23  60 N5        30.31R
$$

COZ069>075-030100-
...SAN LUIS VALLEY/SANGRE DE CRISTO MOUNTAINS...

CITY           SKY/WX    TMP DP  RH WIND       PRES   REMARKS
ALAMOSA        CLOUDY    55  30  38 SW10      30.16S
LA VETA PASS   FAIR      37  28  70 CALM      30.26S
SAGUACHE       FAIR      54  27  35 CALM      30.16S
$$

COZ035-036-038>040-030100-
...NORTHERN COLORADO FRONT RANGE...

CITY           SKY/WX    TMP DP  RH WIND       PRES   REMARKS
DENVER INTL AP FAIR      59  23  25 CALM      30.11S
DMNS CITY PARK   N/A     59  23  25 NE5G16    30.11S
AURORA         FAIR      57  26  30 N5        30.12S
FRONT RANGE AP MOSUNNY   55  23  28 NE3       30.12S
ERIE MUNI ARPT FAIR      59  25  27 CALM      30.10S
BOULDER MUN AP FAIR      61  28  29 E6        30.09F
CENTENNIAL     FAIR      55  24  30 CALM      30.12S
BROOMFIELD     PTSUNNY   59  28  31 E12       30.12S
FORT COLLINS   FAIR      61  30  31 CALM      30.09F
LONGMONT       FAIR      62  28  26 SW3       30.11S
$$

COZ041-046-047-076>085-087-088-030100-
...PIKES PEAK/PALMER DIVIDE AND SOUTHERN FOOTHILLS...

CITY           SKY/WX    TMP DP  RH WIND       PRES   REMARKS
COLO. SPRINGS  FAIR      57   4  12 VRB5      30.13F
A. F. ACADEMY  FAIR      55  14  19 VRB2      30.12F
SCHRIEVER AFB  NOT AVBL
ELLICOTT       FAIR     N/A N/A N/A NW3       30.12F
FALCON         FAIR      54  10  17 E3        30.16F
FORT CARSON    FAIR      58  28  31 SE8       30.11F
LIMON          FAIR      52  20  28 NW9       30.13S
MONUMENT HILL  FAIR      46  19  34 CALM      30.17S
TRINIDAD       FAIR      57  33  40 E7        30.13S
$$

COZ042>045-048>051-090-091-030100-
...NORTHEAST COLORADO...

CITY           SKY/WX    TMP DP  RH WIND       PRES   REMARKS
GREELEY ARPT   FAIR      63  28  27 N3        30.09S
AKRON          FAIR      57  24  28 SW9       30.07F
BURLINGTON     FAIR      59  15  18 NW7       30.09F
WRAY           NOT AVBL
STERLING       FAIR      63  30  29 N13G18    30.05R
HOLYOKE        NOT AVBL
FORT MORGAN    FAIR      61  22  22 SW7       30.08F
$$

COZ086-089-092>099-030100-
...SOUTHEAST COLORADO...

CITY           SKY/WX    TMP DP  RH WIND       PRES   REMARKS
PUEBLO         FAIR      63  26  24 CALM      30.09F
LA JUNTA       FAIR      61  26  26 CALM      30.10F
LAMAR          FAIR      62  27  26 SW5       30.07F
SPRINGFIELD      N/A     58  34  40 N9        30.11F
$$



USA.gov is the U.S. government's official web portal to all federal, state and local government web resources and services.